QPF
0.13 0.12 0.09 0.07 0.05 0.04 0.04 0.04 0.04 0.04 0.03 0.03 0.03 0.02 0.02 0.02 0.02 0.02 0.04 0.05 0.04 0.04 0.04 0.04 0.03 0.01 0.02 0.04 0.05 0.05 0.04 0.03 0.02 0.02 0.03 0.05 0.04 0.04 0.05 0.07 0.06 0.04 0.05
0.11 0.13 0.12 0.09 0.05 0.04 0.03 0.02 0.03 0.03 0.04 0.04 0.04 0.03 0.02 0.02 0.01 0.02 0.03 0.03 0.03 0.03 0.03 0.03 0.02 0.01 0.02 0.03 0.03 0.03 0.03 0.03 0.03 0.02 0.03 0.03 0.04 0.04 0.04 0.05 0.05 0.04 0.05
0.05 0.07 0.08 0.05 0.03 0.02 0.02 0.01 0.01 0.01 0.02 0.02 0.02 0.02 0.02 0.03 0.02 0.02 0.03 0.03 0.03 0.04 0.04 0.02 0.02 0.02 0.01 0.02 0.02 0.02 0.03 0.03 0.03 0.04 0.04 0.05 0.05 0.05 0.05 0.05 0.04 0.05 0.05
0.04 0.05 0.04 0.03 0.02 0.01 0.01 0.01 0.01 0.01 0.01 0.01 0.01 0.01 0.02 0.03 0.04 0.03 0.02 0.03 0.04 0.05 0.05 0.04 0.03 0.02 0.02 0.02 0.02 0.02 0.03 0.03 0.04 0.04 0.04 0.05 0.04 0.04 0.04 0.04 0.04 0.05 0.04
0.05 0.04 0.03 0.02 0.02 0.02 0.02 0.02 0.02 0.01 0.01 0.01 0.01 0.01 0.02 0.03 0.03 0.03 0.03 0.03 0.04 0.06 0.05 0.05 0.05 0.03 0.03 0.03 0.02 0.03 0.04 0.04 0.04 0.04 0.04 0.03 0.03 0.03 0.03 0.02 0.02 0.03 0.04
0.03 0.03 0.03 0.03 0.03 0.02 0.02 0.02 0.02 0.02 0.02 0.01 0.01 0.02 0.02 0.02 0.03 0.03 0.02 0.03 0.04 0.06 0.06 0.05 0.05 0.05 0.05 0.05 0.05 0.05 0.04 0.04 0.03 0.03 0.03 0.02 0.02 0.02 0.01 0.01 0.01 0.01 0.02
0.02 0.03 0.03 0.01 0.01 0.01 0.01 0.02 0.02 0.02 0.02 0.02 0.02 0.02 0.02 0.03 0.04 0.06 0.07 0.07 0.06 0.06 0.06 0.07 0.07 0.07 0.08 0.05 0.05 0.05 0.04 0.05 0.05 0.03 0.03 0.02 0.02 0.02 0.01 0.01 0.01 0.01 0.02
0.02 0.02 0.02 0.01 0.01 0.02 0.02 0.01 0.02 0.02 0.01 0.02 0.02 0.03 0.05 0.07 0.08 0.10 0.12 0.13 0.11 0.08 0.06 0.06 0.06 0.06 0.05 0.04 0.04 0.04 0.03 0.02 0.03 0.03 0.02 0.02 0.03 0.02 0.02 0.01 0.01 0.01 0.02
0.01 0.01 0.00 0.01 0.01 0.01 0.02 0.02 0.01 0.01 0.01 0.02 0.03 0.04 0.06 0.06 0.05 0.05 0.05 0.05 0.07 0.08 0.08 0.06 0.05 0.04 0.05 0.05 0.05 0.05 0.04 0.03 0.03 0.03 0.02 0.03 0.04 0.03 0.02 0.01 0.01 0.01 0.02
0.01 0.01 0.01 0.01 0.00 0.01 0.03 0.04 0.03 0.02 0.02 0.02 0.03 0.03 0.03 0.03 0.04 0.05 0.04 0.03 0.03 0.03 0.04 0.04 0.03 0.03 0.04 0.03 0.03 0.03 0.04 0.03 0.03 0.02 0.03 0.03 0.03 0.03 0.03 0.03 0.02 0.02 0.02
0.01 0.01 0.00 0.00 0.00 0.00 0.01 0.01 0.03 0.04 0.04 0.03 0.04 0.03 0.03 0.04 0.04 0.05 0.04 0.03 0.02 0.02 0.02 0.02 0.02 0.02 0.02 0.02 0.02 0.01 0.01 0.02 0.02 0.03 0.03 0.03 0.03 0.03 0.04 0.06 0.05 0.03 0.02
0.01 0.00 0.00 0.00 0.00 0.00 0.01 0.01 0.02 0.06 0.07 0.03 0.02 0.01 0.02 0.03 0.05 0.05 0.04 0.04 0.03 0.02 0.02 0.02 0.02 0.02 0.02 0.02 0.02 0.01 0.01 0.01 0.02 0.02 0.03 0.04 0.04 0.04 0.04 0.05 0.07 0.07 0.05
0.01 0.00 0.00 0.00 0.00 0.00 0.00 0.00 0.01 0.02 0.04 0.02 0.01 0.01 0.01 0.01 0.02 0.04 0.05 0.04 0.04 0.03 0.03 0.04 0.03 0.03 0.04 0.04 0.03 0.03 0.02 0.01 0.01 0.02 0.02 0.02 0.03 0.05 0.04 0.04 0.05 0.07 0.07
0.01 0.01 0.00 0.00 0.00 0.00 0.00 0.00 0.01 0.01 0.01 0.01 0.01 0.02 0.02 0.01 0.01 0.01 0.02 0.04 0.04 0.03 0.03 0.04 0.04 0.04 0.04 0.05 0.05 0.04 0.03 0.02 0.02 0.02 0.03 0.03 0.02 0.03 0.04 0.04 0.06 0.06 0.07
0.02 0.01 0.01 0.00 0.00 0.00 0.00 0.01 0.02 0.01 0.01 0.02 0.03 0.02 0.02 0.01 0.01 0.01 0.01 0.02 0.02 0.02 0.03 0.03 0.03 0.03 0.02 0.03 0.04 0.04 0.04 0.03 0.03 0.02 0.02 0.03 0.03 0.03 0.04 0.04 0.05 0.04 0.04
0.03 0.03 0.02 0.01 0.01 0.00 0.01 0.01 0.01 0.01 0.01 0.02 0.04 0.02 0.01 0.01 0.02 0.02 0.01 0.01 0.02 0.04 0.04 0.03 0.02 0.02 0.02 0.02 0.02 0.02 0.03 0.04 0.03 0.02 0.03 0.02 0.02 0.03 0.03 0.05 0.05 0.04 0.03
0.03 0.03 0.02 0.02 0.01 0.01 0.01 0.01 0.01 0.00 0.01 0.01 0.02 0.01 0.01 0.01 0.01 0.01 0.02 0.02 0.02 0.04 0.05 0.04 0.03 0.02 0.02 0.02 0.02 0.02 0.02 0.02 0.02 0.02 0.02 0.01 0.02 0.02 0.03 0.04 0.04 0.03 0.02
0.02 0.02 0.02 0.01 0.01 0.01 0.01 0.01 0.01 0.01 0.01 0.01 0.02 0.01 0.01 0.01 0.01 0.02 0.01 0.01 0.02 0.02 0.03 0.05 0.05 0.04 0.02 0.02 0.02 0.02 0.02 0.02 0.02 0.02 0.02 0.02 0.01 0.02 0.03 0.03 0.02 0.01 0.01
0.02 0.02 0.02 0.03 0.03 0.03 0.02 0.01 0.01 0.01 0.02 0.02 0.03 0.01 0.01 0.01 0.01 0.01 0.01 0.01 0.01 0.01 0.02 0.03 0.04 0.05 0.05 0.04 0.04 0.03 0.03 0.03 0.03 0.02 0.02 0.01 0.01 0.02 0.02 0.02 0.01 0.01 0.01
0.03 0.05 0.05 0.04 0.03 0.02 0.02 0.02 0.02 0.02 0.02 0.02 0.02 0.02 0.01 0.01 0.01 0.01 0.01 0.01 0.01 0.01 0.02 0.02 0.03 0.04 0.05 0.05 0.06 0.06 0.04 0.03 0.03 0.02 0.01 0.01 0.01 0.01 0.01 0.01 0.01 0.01 0.01
0.03 0.04 0.05 0.05 0.04 0.03 0.04 0.04 0.02 0.02 0.02 0.01 0.02 0.03 0.02 0.01 0.01 0.02 0.02 0.02 0.01 0.02 0.02 0.02 0.02 0.03 0.04 0.05 0.05 0.05 0.06 0.05 0.03 0.02 0.02 0.01 0.01 0.01 0.01 0.01 0.01 0.01 0.01
0.04 0.05 0.05 0.05 0.05 0.06 0.06 0.05 0.04 0.03 0.03 0.02 0.02 0.03 0.02 0.01 0.01 0.01 0.01 0.01 0.01 0.02 0.02 0.03 0.03 0.03 0.03 0.04 0.04 0.04 0.05 0.05 0.04 0.03 0.02 0.02 0.01 0.01 0.01 0.01 0.01 0.01 0.01
0.03 0.03 0.03 0.03 0.03 0.03 0.04 0.05 0.04 0.03 0.03 0.03 0.03 0.03 0.03 0.02 0.01 0.01 0.01 0.01 0.01 0.01 0.02 0.03 0.03 0.04 0.04 0.04 0.04 0.04 0.04 0.04 0.05 0.04 0.02 0.01 0.01 0.01 0.02 0.02 0.02 0.02 0.02
0.03 0.02 0.02 0.02 0.02 0.03 0.04 0.05 0.04 0.03 0.04 0.04 0.04 0.04 0.03 0.02 0.01 0.01 0.01 0.01 0.01 0.01 0.01 0.02 0.03 0.03 0.03 0.04 0.05 0.04 0.04 0.04 0.03 0.03 0.03 0.02 0.01 0.01 0.02 0.02 0.02 0.02 0.02
0.02 0.02 0.02 0.02 0.02 0.03 0.04 0.05 0.03 0.03 0.04 0.05 0.04 0.03 0.02 0.02 0.01 0.01 0.01 0.01 0.00 0.01 0.01 0.02 0.02 0.03 0.03 0.02 0.03 0.04 0.04 0.05 0.05 0.04 0.03 0.02 0.02 0.02 0.02 0.02 0.02 0.02 0.02
0.01 0.02 0.03 0.03 0.03 0.02 0.05 0.05 0.03 0.02 0.03 0.04 0.04 0.03 0.02 0.02 0.02 0.01 0.01 0.00 0.00 0.00 0.01 0.02 0.02 0.02 0.02 0.02 0.02 0.02 0.03 0.03 0.04 0.05 0.05 0.04 0.03 0.02 0.02 0.02 0.02 0.02 0.02
MSLP
1012.14 1012.36 1012.58 1012.80 1013.02 1013.24 1013.46 1013.69 1013.95 1014.24 1014.53 1014.82 1015.09 1015.32 1015.49 1015.61 1015.68 1015.72 1015.75 1015.80 1015.89 1016.01 1016.16 1016.34 1016.52 1016.67 1016.78 1016.82 1016.80 1016.71 1016.57 1016.37 1016.13 1015.86 1015.56 1015.24 1014.89 1014.54 1014.20 1013.87 1013.58 1013.35 1013.19
1012.48 1012.72 1012.94 1013.14 1013.30 1013.45 1013.59 1013.75 1013.93 1014.15 1014.39 1014.65 1014.90 1015.12 1015.29 1015.41 1015.48 1015.50 1015.50 1015.50 1015.52 1015.57 1015.65 1015.74 1015.85 1015.95 1016.03 1016.06 1016.06 1016.01 1015.91 1015.78 1015.61 1015.42 1015.19 1014.93 1014.65 1014.34 1014.03 1013.71 1013.41 1013.15 1012.94
1012.91 1013.16 1013.35 1013.50 1013.59 1013.66 1013.71 1013.78 1013.88 1014.03 1014.23 1014.45 1014.69 1014.91 1015.09 1015.21 1015.28 1015.29 1015.27 1015.22 1015.18 1015.16 1015.16 1015.19 1015.23 1015.28 1015.32 1015.34 1015.34 1015.32 1015.27 1015.19 1015.09 1014.96 1014.81 1014.63 1014.41 1014.18 1013.91 1013.63 1013.35 1013.09 1012.84
1013.45 1013.67 1013.83 1013.91 1013.93 1013.90 1013.86 1013.84 1013.87 1013.96 1014.12 1014.32 1014.54 1014.76 1014.95 1015.08 1015.14 1015.13 1015.08 1014.99 1014.90 1014.81 1014.74 1014.70 1014.69 1014.69 1014.70 1014.70 1014.70 1014.69 1014.66 1014.62 1014.57 1014.50 1014.42 1014.32 1014.19 1014.03 1013.84 1013.63 1013.39 1013.14 1012.88
1014.09 1014.28 1014.39 1014.41 1014.34 1014.23 1014.11 1014.01 1013.98 1014.02 1014.14 1014.32 1014.54 1014.75 1014.93 1015.05 1015.10 1015.07 1014.98 1014.85 1014.70 1014.55 1014.42 1014.33 1014.26 1014.22 1014.20 1014.18 1014.17 1014.15 1014.13 1014.11 1014.08 1014.06 1014.03 1014.00 1013.95 1013.88 1013.78 1013.64 1013.47 1013.26 1013.01
1014.81 1014.98 1015.03 1014.98 1014.85 1014.67 1014.49 1014.34 1014.26 1014.27 1014.36 1014.53 1014.73 1014.93 1015.09 1015.19 1015.21 1015.14 1015.00 1014.82 1014.61 1014.41 1014.23 1014.08 1013.97 1013.89 1013.83 1013.79 1013.75 1013.72 1013.68 1013.66 1013.64 1013.63 1013.64 1013.66 1013.68 1013.69 1013.67 1013.62 1013.52 1013.36 1013.13
1015.61 1015.74 1015.75 1015.65 1015.47 1015.25 1015.03 1014.85 1014.75 1014.74 1014.82 1014.96 1015.15 1015.32 1015.45 1015.50 1015.47 1015.35 1015.16 1014.91 1014.65 1014.39 1014.16 1013.97 1013.83 1013.71 1013.62 1013.55 1013.47 1013.40 1013.34 1013.28 1013.24 1013.23 1013.24 1013.28 1013.35 1013.42 1013.47 1013.50 1013.46 1013.35 1013.16
1016.44 1016.54 1016.52 1016.40 1016.20 1015.96 1015.72 1015.54 1015.44 1015.42 1015.49 1015.62 1015.77 1015.91 1015.98 1015.98 1015.89 1015.70 1015.45 1015.14 1014.82 1014.52 1014.24 1014.01 1013.83 1013.68 1013.56 1013.44 1013.33 1013.21 1013.09 1012.98 1012.90 1012.85 1012.84 1012.87 1012.95 1013.04 1013.14 1013.21 1013.22 1013.16 1013.00
1017.28 1017.36 1017.33 1017.20 1017.00 1016.77 1016.54 1016.37 1016.28 1016.27 1016.33 1016.44 1016.56 1016.64 1016.66 1016.59 1016.43 1016.17 1015.85 1015.48 1015.11 1014.77 1014.45 1014.19 1013.97 1013.79 1013.63 1013.47 1013.31 1013.13 1012.95 1012.78 1012.63 1012.51 1012.45 1012.44 1012.48 1012.56 1012.66 1012.74 1012.78 1012.75 1012.62
1018.08 1018.16 1018.13 1018.01 1017.83 1017.62 1017.43 1017.29 1017.22 1017.21 1017.27 1017.35 1017.43 1017.46 1017.42 1017.28 1017.04 1016.72 1016.34 1015.93 1015.51 1015.13 1014.78 1014.49 1014.24 1014.03 1013.83 1013.63 1013.41 1013.17 1012.92 1012.67 1012.44 1012.24 1012.10 1012.01 1011.99 1012.02 1012.07 1012.13 1012.16 1012.14 1012.03
1018.82 1018.90 1018.88 1018.78 1018.63 1018.47 1018.32 1018.21 1018.16 1018.17 1018.22 1018.28 1018.31 1018.29 1018.19 1017.99 1017.70 1017.33 1016.90 1016.45 1016.00 1015.59 1015.22 1014.91 1014.63 1014.38 1014.15 1013.90 1013.63 1013.33 1013.01 1012.68 1012.37 1012.08 1011.84 1011.66 1011.55 1011.49 1011.47 1011.47 1011.46 1011.41 1011.31
1019.47 1019.55 1019.55 1019.48 1019.37 1019.25 1019.14 1019.08 1019.05 1019.07 1019.11 1019.15 1019.15 1019.08 1018.94 1018.69 1018.36 1017.96 1017.51 1017.04 1016.58 1016.15 1015.77 1015.43 1015.13 1014.85 1014.58 1014.29 1013.97 1013.62 1013.24 1012.84 1012.45 1012.07 1011.74 1011.46 1011.24 1011.08 1010.96 1010.87 1010.79 1010.70 1010.58
1019.99 1020.07 1020.08 1020.05 1019.98 1019.91 1019.85 1019.82 1019.83 1019.86 1019.89 1019.92 1019.89 1019.80 1019.63 1019.36 1019.02 1018.61 1018.15 1017.69 1017.23 1016.80 1016.41 1016.05 1015.73 1015.43 1015.12 1014.79 1014.43 1014.04 1013.62 1013.17 1012.72 1012.27 1011.86 1011.48 1011.16 1010.89 1010.66 1010.46 1010.29 1010.13 1009.98
1020.37 1020.45 1020.48 1020.47 1020.45 1020.42 1020.41 1020.43 1020.46 1020.51 1020.55 1020.57 1020.53 1020.43 1020.25 1019.99 1019.66 1019.27 1018.84 1018.39 1017.95 1017.53 1017.13 1016.77 1016.43 1016.10 1015.77 1015.41 1015.02 1014.61 1014.16 1013.68 1013.19 1012.70 1012.23 1011.79 1011.37 1011.00 1010.66 1010.36 1010.09 1009.85 1009.63
1020.61 1020.68 1020.72 1020.75 1020.77 1020.79 1020.83 1020.89 1020.95 1021.02 1021.08 1021.10 1021.07 1020.98 1020.82 1020.59 1020.29 1019.93 1019.54 1019.13 1018.72 1018.32 1017.94 1017.57 1017.22 1016.87 1016.51 1016.13 1015.73 1015.30 1014.85 1014.37 1013.87 1013.37 1012.87 1012.38 1011.90 1011.45 1011.02 1010.62 1010.25 1009.92 1009.62
1020.73 1020.79 1020.84 1020.90 1020.96 1021.04 1021.13 1021.23 1021.33 1021.43 1021.50 1021.55 1021.54 1021.47 1021.34 1021.15 1020.90 1020.60 1020.26 1019.90 1019.53 1019.15 1018.78 1018.42 1018.05 1017.69 1017.32 1016.93 1016.53 1016.11 1015.66 1015.21 1014.73 1014.24 1013.73 1013.23 1012.72 1012.21 1011.71 1011.23 1010.77 1010.35 1009.97
1020.78 1020.83 1020.89 1020.98 1021.09 1021.21 1021.35 1021.50 1021.64 1021.77 1021.86 1021.93 1021.94 1021.91 1021.82 1021.67 1021.47 1021.23 1020.95 1020.64 1020.32 1019.97 1019.62 1019.26 1018.89 1018.52 1018.14 1017.75 1017.36 1016.96 1016.54 1016.12 1015.67 1015.21 1014.74 1014.24 1013.72 1013.19 1012.64 1012.10 1011.57 1011.07 1010.61
1020.82 1020.86 1020.94 1021.05 1021.20 1021.37 1021.56 1021.74 1021.91 1022.06 1022.18 1022.27 1022.30 1022.29 1022.24 1022.13 1021.99 1021.80 1021.57 1021.31 1021.03 1020.72 1020.38 1020.03 1019.67 1019.29 1018.92 1018.54 1018.16 1017.78 1017.40 1017.01 1016.62 1016.20 1015.76 1015.28 1014.78 1014.24 1013.68 1013.10 1012.52 1011.95 1011.42
1020.91 1020.94 1021.03 1021.17 1021.36 1021.56 1021.78 1021.99 1022.18 1022.35 1022.48 1022.56 1022.61 1022.62 1022.58 1022.51 1022.40 1022.25 1022.07 1021.85 1021.60 1021.32 1021.01 1020.67 1020.31 1019.95 1019.58 1019.21 1018.85 1018.50 1018.15 1017.80 1017.45 1017.08 1016.68 1016.24 1015.76 1015.23 1014.66 1014.07 1013.46 1012.85 1012.27
1021.08 1021.11 1021.22 1021.38 1021.58 1021.81 1022.04 1022.26 1022.46 1022.61 1022.73 1022.81 1022.85 1022.85 1022.82 1022.76 1022.67 1022.55 1022.40 1022.21 1021.99 1021.73 1021.44 1021.12 1020.78 1020.42 1020.06 1019.71 1019.37 1019.04 1018.72 1018.41 1018.09 1017.76 1017.39 1016.99 1016.53 1016.03 1015.48 1014.89 1014.27 1013.65 1013.03
1021.35 1021.40 1021.51 1021.68 1021.89 1022.12 1022.34 1022.55 1022.72 1022.85 1022.94 1022.99 1023.00 1022.98 1022.93 1022.87 1022.78 1022.67 1022.53 1022.37 1022.16 1021.93 1021.65 1021.35 1021.02 1020.68 1020.34 1020.00 1019.67 1019.36 1019.06 1018.77 1018.48 1018.17 1017.83 1017.45 1017.03 1016.55 1016.02 1015.45 1014.86 1014.24 1013.62
1021.73 1021.78 1021.89 1022.05 1022.25 1022.45 1022.65 1022.81 1022.94 1023.03 1023.07 1023.07 1023.04 1022.98 1022.91 1022.82 1022.72 1022.61 1022.48 1022.32 1022.13 1021.91 1021.66 1021.37 1021.06 1020.73 1020.40 1020.07 1019.75 1019.45 1019.16 1018.88 1018.60 1018.30 1017.98 1017.62 1017.22 1016.78 1016.28 1015.75 1015.18 1014.60 1014.00
1022.17 1022.21 1022.31 1022.45 1022.61 1022.77 1022.92 1023.03 1023.09 1023.12 1023.09 1023.04 1022.96 1022.86 1022.75 1022.64 1022.53 1022.40 1022.27 1022.12 1021.94 1021.73 1021.48 1021.21 1020.91 1020.60 1020.28 1019.96 1019.64 1019.34 1019.05 1018.77 1018.48 1018.19 1017.88 1017.53 1017.15 1016.73 1016.28 1015.79 1015.27 1014.72 1014.16
1022.61 1022.64 1022.71 1022.81 1022.92 1023.03 1023.10 1023.15 1023.14 1023.10 1023.02 1022.91 1022.78 1022.64 1022.50 1022.37 1022.24 1022.11 1021.97 1021.82 1021.65 1021.44 1021.21 1020.95 1020.66 1020.36 1020.04 1019.72 1019.41 1019.10 1018.80 1018.51 1018.21 1017.91 1017.60 1017.26 1016.89 1016.50 1016.08 1015.63 1015.15 1014.66 1014.15
1023.00 1023.00 1023.04 1023.09 1023.14 1023.18 1023.18 1023.15 1023.09 1022.98 1022.85 1022.69 1022.53 1022.37 1022.21 1022.07 1021.93 1021.79 1021.66 1021.51 1021.34 1021.14 1020.91 1020.66 1020.38 1020.08 1019.76 1019.44 1019.12 1018.80 1018.49 1018.18 1017.87 1017.55 1017.22 1016.88 1016.52 1016.14 1015.75 1015.33 1014.90 1014.46 1013.99
1023.28 1023.26 1023.25 1023.25 1023.24 1023.21 1023.15 1023.05 1022.93 1022.78 1022.61 1022.43 1022.25 1022.08 1021.92 1021.78 1021.65 1021.52 1021.38 1021.24 1021.07 1020.88 1020.65 1020.40 1020.12 1019.82 1019.50 1019.17 1018.84 1018.50 1018.17 1017.84 1017.51 1017.17 1016.82 1016.47 1016.10 1015.73 1015.34 1014.94 1014.54 1014.12 1013.69
Thickness
5705 5703 5700 5699 5696 5694 5692 5690 5688 5686 5685 5683 5681 5678 5677 5677 5676 5674 5673 5672 5671 5669 5668 5667 5666 5666 5665 5665 5665 5665 5664 5664 5663 5664 5665 5667 5667 5669 5670 5669 5669 5669 5670
5699 5697 5694 5692 5690 5688 5686 5684 5682 5680 5679 5677 5675 5674 5673 5673 5671 5670 5669 5668 5667 5666 5665 5664 5664 5664 5663 5663 5662 5661 5661 5661 5660 5659 5660 5661 5662 5663 5664 5664 5664 5664 5664
5693 5691 5689 5687 5685 5682 5681 5679 5677 5674 5673 5672 5670 5669 5669 5669 5668 5667 5665 5665 5664 5664 5663 5662 5662 5661 5660 5660 5659 5658 5658 5658 5657 5656 5655 5656 5657 5658 5658 5658 5658 5658 5658
5687 5685 5683 5681 5679 5677 5676 5675 5672 5670 5669 5667 5667 5666 5666 5666 5665 5664 5663 5662 5662 5661 5661 5661 5660 5660 5659 5658 5656 5655 5654 5653 5652 5651 5651 5651 5652 5652 5652 5652 5652 5652 5652
5681 5679 5678 5676 5675 5673 5672 5670 5669 5667 5666 5665 5664 5663 5663 5662 5662 5661 5660 5659 5659 5658 5659 5658 5658 5658 5658 5656 5655 5653 5651 5650 5648 5648 5647 5646 5647 5646 5647 5647 5647 5646 5647
5675 5674 5673 5671 5669 5668 5667 5666 5665 5664 5663 5662 5661 5660 5659 5659 5658 5657 5657 5656 5656 5655 5655 5655 5655 5655 5654 5654 5653 5652 5651 5649 5647 5645 5644 5643 5644 5644 5643 5643 5642 5641 5642
5669 5668 5667 5666 5664 5663 5662 5661 5660 5659 5659 5658 5658 5657 5656 5655 5654 5654 5653 5652 5652 5652 5652 5651 5651 5652 5651 5651 5650 5649 5648 5647 5646 5645 5643 5643 5642 5642 5640 5639 5638 5638 5638
5664 5663 5662 5660 5659 5657 5656 5655 5655 5654 5653 5653 5653 5652 5652 5651 5651 5650 5649 5648 5648 5648 5648 5648 5647 5647 5647 5647 5646 5645 5644 5643 5643 5642 5643 5642 5642 5640 5638 5638 5636 5634 5633
5659 5658 5657 5656 5654 5652 5651 5650 5650 5649 5649 5649 5648 5648 5647 5647 5646 5645 5645 5644 5645 5645 5645 5645 5645 5644 5643 5642 5642 5641 5640 5640 5640 5639 5639 5638 5638 5637 5635 5633 5631 5630 5630
5655 5654 5653 5651 5649 5647 5646 5645 5644 5644 5644 5644 5644 5643 5642 5642 5642 5641 5641 5641 5640 5641 5641 5641 5641 5640 5639 5638 5638 5637 5636 5635 5635 5634 5633 5633 5632 5632 5631 5630 5630 5627 5626
5650 5649 5647 5646 5644 5643 5641 5640 5639 5639 5639 5638 5639 5638 5638 5637 5637 5637 5636 5636 5636 5636 5637 5637 5637 5636 5635 5635 5634 5633 5632 5631 5629 5629 5628 5628 5627 5627 5626 5626 5625 5624 5623
5644 5642 5641 5640 5639 5638 5636 5635 5634 5633 5633 5633 5633 5634 5634 5633 5633 5633 5632 5632 5632 5632 5632 5632 5633 5632 5631 5630 5629 5629 5628 5626 5625 5624 5623 5623 5622 5622 5621 5620 5619 5618 5617
5637 5636 5635 5634 5633 5632 5631 5629 5628 5628 5628 5628 5628 5628 5629 5629 5629 5628 5628 5627 5627 5627 5627 5628 5628 5628 5627 5626 5625 5624 5623 5622 5620 5619 5618 5617 5616 5615 5614 5613 5612 5611 5610
5632 5630 5629 5628 5627 5626 5625 5625 5624 5623 5623 5623 5623 5623 5624 5624 5624 5624 5623 5623 5622 5622 5622 5622 5622 5622 5621 5621 5620 5618 5617 5617 5616 5615 5614 5611 5609 5608 5608 5607 5606 5605 5603
5625 5624 5623 5623 5621 5620 5620 5620 5620 5620 5620 5619 5620 5620 5619 5620 5621 5619 5618 5618 5617 5617 5616 5617 5617 5617 5616 5616 5615 5613 5612 5611 5610 5609 5607 5605 5604 5603 5602 5601 5599 5598 5596
5618 5618 5617 5616 5615 5615 5615 5615 5616 5616 5617 5617 5617 5616 5616 5616 5616 5614 5613 5613 5612 5611 5611 5612 5612 5612 5612 5611 5610 5609 5607 5606 5605 5603 5602 5601 5599 5598 5596 5594 5593 5592 5590
5612 5612 5612 5611 5611 5611 5611 5611 5611 5612 5613 5613 5613 5613 5613 5612 5611 5610 5609 5608 5607 5607 5607 5608 5608 5608 5607 5606 5605 5604 5603 5601 5599 5598 5597 5596 5594 5592 5590 5589 5587 5585 5583
5607 5607 5607 5606 5606 5606 5606 5606 5606 5607 5608 5609 5608 5608 5608 5607 5606 5606 5604 5603 5603 5603 5604 5604 5604 5604 5603 5602 5601 5599 5597 5595 5594 5592 5591 5590 5589 5587 5585 5583 5582 5580 5578
5601 5601 5602 5601 5601 5601 5601 5601 5602 5602 5603 5603 5603 5603 5602 5601 5601 5600 5599 5600 5601 5600 5600 5600 5600 5600 5599 5598 5596 5594 5592 5591 5589 5587 5586 5584 5583 5582 5580 5578 5576 5573 5572
5596 5596 5596 5596 5596 5596 5596 5597 5598 5598 5598 5598 5598 5599 5598 5597 5596 5596 5595 5596 5596 5597 5597 5596 5596 5596 5595 5594 5592 5590 5588 5586 5585 5583 5581 5580 5579 5577 5575 5573 5571 5569 5567
5591 5591 5591 5591 5591 5592 5592 5593 5593 5593 5593 5594 5594 5594 5593 5593 5593 5593 5592 5592 5592 5592 5592 5592 5592 5591 5590 5589 5587 5586 5584 5582 5580 5579 5577 5575 5574 5572 5570 5568 5566 5564 5562
5586 5586 5586 5586 5586 5587 5587 5588 5588 5589 5589 5590 5590 5589 5587 5588 5588 5588 5588 5588 5588 5587 5587 5587 5587 5586 5585 5584 5583 5581 5579 5577 5576 5574 5572 5570 5568 5566 5564 5562 5561 5559 5557
5580 5580 5581 5581 5581 5582 5582 5583 5584 5584 5585 5585 5585 5584 5583 5583 5583 5583 5583 5583 5582 5582 5582 5582 5581 5580 5579 5578 5577 5576 5574 5573 5571 5569 5567 5565 5563 5561 5559 5557 5556 5554 5553
5575 5575 5575 5576 5576 5577 5577 5578 5579 5579 5580 5579 5579 5579 5578 5578 5578 5578 5577 5577 5577 5576 5576 5576 5575 5574 5573 5572 5571 5570 5569 5567 5565 5564 5562 5560 5559 5557 5555 5552 5551 5549 5547
5570 5570 5570 5570 5571 5571 5572 5572 5573 5574 5574 5574 5573 5573 5573 5572 5572 5572 5571 5571 5571 5571 5570 5570 5569 5568 5567 5567 5566 5565 5564 5562 5561 5559 5557 5556 5554 5552 5550 5548 5546 5544 5542
5564 5564 5564 5565 5565 5566 5566 5567 5567 5568 5568 5568 5568 5568 5567 5567 5567 5566 5566 5566 5565 5565 5564 5563 5562 5562 5561 5561 5560 5559 5558 5557 5556 5554 5552 5550 5549 5547 5545 5544 5542 5540 5538